GW2364 Weather Reports


time (UTC)temp
F
wind
direction
speed
knots
gust
knots
rain 1hr
in
rain 24hr
in
rain mn
in
humidity
%
barometer
mb
20260902120005 77 232 0.9 2.6 0.00 0.00 0.00 80 1012.7
20260902114503 76 232 0.0 3.5 0.00 0.00 0.00 80 1012.5
20260902113003 77 205 0.0 1.7 0.00 0.00 0.00 78 1012.4
20260902111502 77 171 0.0 1.7 0.00 0.00 0.00 78 1012.6
20260902110008 78 171 0.0 0.9 0.00 0.00 0.00 78 1012.6
20260902104502 78 171 0.9 1.7 0.00 0.00 0.00 78 1012.5
20260902103007 77 171 0.0 1.7 0.00 0.00 0.00 79 1012.5
20260902101503 78 171 0.9 1.7 0.00 0.00 0.00 78 1012.5
20260902100004 78 108 0.0 0.0 0.00 0.00 0.00 77 1012.4
20260902094504 78 108 0.0 0.0 0.00 0.00 0.00 78 1012.5
20260902093009 78 108 0.0 0.9 0.00 0.00 0.00 77 1012.4
20260902091502 78 108 0.0 0.9 0.00 0.00 0.00 77 1012.5
20260902090005 79 108 0.0 1.7 0.00 0.00 0.00 76 1012.6
20260902084505 79 108 0.0 1.7 0.00 0.00 0.00 76 1012.6
20260902083002 79 221 0.0 1.7 0.00 0.00 0.00 76 1012.6
20260902081503 80 221 0.0 0.9 0.00 0.00 0.00 75 1012.6
20260902080004 80 221 0.0 0.9 0.00 0.00 0.00 74 1012.5
20260902074502 80 221 0.0 0.9 0.00 0.00 0.00 74 1012.6
20260902073002 80 221 0.0 0.9 0.00 0.00 0.00 74 1012.6
20260902071503 81 221 0.0 2.6 0.00 0.00 0.00 72 1012.8
20260902070006 81 221 0.0 0.9 0.00 0.00 0.00 73 1012.7
20260902064503 82 221 0.0 0.9 0.00 0.00 0.00 72 1012.9
20260902063002 82 221 0.0 3.5 0.00 0.00 0.00 72 1012.6
20260902061505 82 184 0.0 1.7 0.00 0.00 0.00 72 1012.7
20260902060009 82 184 0.0 1.7 0.00 0.00 0.00 71 1012.8
20260902054505 83 109 0.0 1.7 0.00 0.00 0.00 71 1012.7
20260902053005 83 227 0.0 1.7 0.00 0.00 0.00 71 1012.7
20260902051505 84 115 0.0 2.6 0.00 0.00 0.00 70 1012.6
20260902050012 84 46 0.0 1.7 0.00 0.00 0.00 69 1012.7
20260902044504 85 132 0.0 2.6 0.00 0.00 0.00 68 1012.7
20260902043011 85 122 0.0 5.2 0.00 0.00 0.00 66 1012.7
20260902041504 86 56 0.9 6.1 0.00 0.00 0.00 65 1012.6
20260902040006 85 90 2.6 6.1 0.00 0.00 0.00 65 1012.6
20260902034504 85 75 0.9 2.6 0.00 0.00 0.00 63 1012.3
20260902033004 86 69 0.0 3.5 0.00 0.00 0.00 62 1012.2
20260902031504 86 78 0.9 2.6 0.00 0.00 0.00 62 1012.1
20260902030006 87 79 0.9 2.6 0.00 0.00 0.00 61 1011.9
20260902024504 87 92 0.9 1.7 0.00 0.00 0.00 60 1011.6
20260902023004 87 96 1.7 3.5 0.00 0.00 0.00 59 1011.3
20260902021512 88 101 0.0 2.6 0.00 0.00 0.00 57 1011.0
20260902020006 89 86 0.9 2.6 0.00 0.00 0.00 56 1011.0
20260902014505 90 95 1.7 7.8 0.00 0.00 0.00 54 1010.7
20260902013004 90 103 1.7 3.5 0.00 0.00 0.00 51 1010.4
20260902011504 91 81 0.9 1.7 0.00 0.00 0.00 50 1010.2
20260902010013 91 57 0.9 4.3 0.00 0.00 0.00 50 1010.2
20260902004507 92 93 0.0 2.6 0.00 0.00 0.00 49 1010.3
20260902003004 93 68 0.9 2.6 0.00 0.00 0.00 48 1010.6
20260902001504 94 77 1.7 5.2 0.00 0.00 0.00 47 1010.4
20260902000010 95 116 2.6 7.0 0.00 0.00 0.00 46 1010.4
20260901234504 96 94 2.6 7.8 0.00 0.00 0.00 45 1010.3
20260901233008 97 59 1.7 7.0 0.00 0.00 0.00 44 1010.3
20260901231504 97 93 4.3 9.6 0.00 0.00 0.00 43 1010.2
20260901230006 98 84 1.7 7.8 0.00 0.00 0.00 42 1010.3
20260901224504 96 61 1.7 6.1 0.00 0.00 0.00 43 1010.2
20260901223004 97 47 2.6 7.8 0.00 0.00 0.00 41 1010.3
20260901221504 100 59 3.5 7.8 0.00 0.00 0.00 40 1010.3
20260901220011 99 64 0.9 6.1 0.00 0.00 0.00 40 1010.4
20260901214505 100 111 1.7 7.0 0.00 0.00 0.00 39 1010.4
20260901213003 100 150 1.7 7.0 0.00 0.00 0.00 39 1010.3
20260901211504 100 132 1.7 6.1 0.00 0.00 0.00 41 1010.6
20260901210008 100 92 1.7 7.8 0.00 0.00 0.00 40 1010.9
20260901204503 99 117 1.7 6.1 0.00 0.00 0.00 41 1011.0
20260901203004 98 44 1.7 8.7 0.00 0.00 0.00 43 1011.4
20260901201504 99 270 0.9 6.1 0.00 0.00 0.00 42 1011.5
20260901200007 98 68 2.6 7.0 0.00 0.00 0.00 44 1011.7
20260901194502 96 98 0.9 9.6 0.00 0.00 0.00 46 1012.0
20260901193007 97 47 0.9 7.8 0.00 0.00 0.00 45 1012.1
20260901191504 98 126 4.3 8.7 0.00 0.00 0.00 43 1012.3
20260901190009 98 195 0.9 6.1 0.00 0.00 0.00 46 1012.6
20260901184504 96 47 1.7 5.2 0.00 0.00 0.00 47 1012.7
20260901183003 97 59 1.7 6.1 0.00 0.00 0.00 46 1013.0
20260901181503 96 45 2.6 7.0 0.00 0.00 0.00 47 1013.3
20260901180006 96 111 1.7 7.8 0.00 0.00 0.00 47 1013.5
20260901174504 95 100 3.5 7.8 0.00 0.00 0.00 49 1013.7
20260901173003 93 127 1.7 4.3 0.00 0.00 0.00 52 1014.0
20260901171503 93 55 3.5 6.1 0.00 0.00 0.00 53 1014.2
20260901170004 92 116 1.7 7.8 0.00 0.00 0.00 54 1014.3
20260901164503 92 42 4.3 9.6 0.00 0.00 0.00 55 1014.4
20260901163003 91 31 1.7 5.2 0.00 0.00 0.00 59 1014.4
20260901161504 90 216 0.9 6.1 0.00 0.00 0.00 59 1014.7
20260901160010 89 269 0.9 3.5 0.00 0.00 0.00 64 1014.7
20260901154505 87 230 0.9 7.0 0.00 0.00 0.00 65 1014.7
20260901153004 86 84 0.0 6.1 0.00 0.00 0.00 68 1014.7
20260901151503 85 235 0.9 4.3 0.00 0.00 0.00 70 1014.6
20260901150007 85 247 0.9 3.5 0.00 0.00 0.00 73 1014.6
20260901144502 83 216 1.7 5.2 0.00 0.00 0.00 76 1014.7
20260901143004 83 240 0.0 2.6 0.00 0.00 0.00 78 1014.9
20260901141506 82 240 0.0 5.2 0.00 0.00 0.00 81 1014.8
20260901140004 81 225 0.0 3.5 0.00 0.00 0.00 83 1015.0
20260901134502 79 237 0.0 2.6 0.00 0.00 0.00 86 1014.7
20260901133004 78 237 0.0 1.7 0.00 0.00 0.00 86 1014.6
20260901131502 78 237 0.0 0.9 0.00 0.00 0.00 88 1014.5
20260901130006 76 237 0.0 0.9 0.00 0.00 0.00 90 1014.5
20260901124503 76 237 0.0 0.9 0.00 0.00 0.00 91 1014.3
20260901123005 75 237 0.0 0.0 0.00 0.00 0.00 90 1014.1
20260901121503 75 236 0.0 1.7 0.00 0.00 0.00 90 1013.9